When you browse on this site, cookies collect data to enhance your experience and personalize the content and advertising you see.
Visit our Privacy Policy to learn more. By continuing to use the site, you agree to this use of cookies and data.
  • In United Kingdom
  • List of Countries
  • For 7 days
  • Water Temperature
  • Satellite Maps
  • Weather Map
  • Weather Widgets
  • user-avatar
    Login

    Hourly Weather Oran

    Today, 21 November, Wednesday

    Time Temperature Precipitation Wind Pressure Humidity
    00:00 +15°C° 0 mm 7 mps 750 mmHg 72%
    01:00 +15°C° 0 mm 6 mps 750 mmHg 70%
    02:00 +15°C° 0 mm 6 mps 750 mmHg 67%
    03:00 +15°C° 0 mm 5 mps 750 mmHg 65%
    04:00 +15°C° 0 mm 5 mps 750 mmHg 64%
    05:00 +14°C° 0 mm 4 mps 750 mmHg 63%
    06:00 +14°C° 0 mm 4 mps 751 mmHg 62%
    07:00 +17°C° 0 mm 3 mps 751 mmHg 57%
    08:00 +18°C° 0 mm 3 mps 751 mmHg 51%
    09:00 +19°C° 0 mm 3 mps 751 mmHg 46%
    10:00 +21°C° 0 mm 3 mps 751 mmHg 40%
    11:00 +22°C° 0 mm 3 mps 751 mmHg 35%
    12:00 +25°C° 0 mm 2 mps 751 mmHg 29%
    13:00 +25°C° 0 mm 3 mps 751 mmHg 28%
    14:00 +25°C° 0 mm 3 mps 750 mmHg 27%
    15:00 +26°C° 0 mm 4 mps 750 mmHg 26%
    16:00 +24°C° 0 mm 3 mps 750 mmHg 34%
    17:00 +21°C° 0 mm 3 mps 751 mmHg 43%
    18:00 +19°C° 0 mm 3 mps 751 mmHg 51%
    19:00 +19°C° 0 mm 2 mps 751 mmHg 53%
    20:00 +18°C° 0 mm 2 mps 752 mmHg 56%
    21:00 +19°C° 0 mm 1 mps 752 mmHg 58%
    22:00 +18°C° 0 mm 1 mps 752 mmHg 59%
    23:00 +18°C° 0 mm 1 mps 752 mmHg 59%

    Tomorrow, 22 November, Thursday

    Time Temperature Precipitation Wind Pressure Humidity
    00:00 +18°C° 0 mm 1 mps 752 mmHg 59%
    01:00 +18°C° 0 mm 1 mps 752 mmHg 59%
    02:00 +18°C° 0 mm 1 mps 752 mmHg 60%
    03:00 +16°C° 0 mm 2 mps 752 mmHg 61%
    04:00 +16°C° 0 mm 2 mps 752 mmHg 62%
    05:00 +16°C° 0 mm 2 mps 752 mmHg 63%
    06:00 +16°C° 0 mm 2 mps 752 mmHg 65%
    07:00 +17°C° 0 mm 2 mps 752 mmHg 61%
    08:00 +18°C° 0 mm 2 mps 752 mmHg 57%
    09:00 +19°C° 0 mm 2 mps 753 mmHg 54%
    10:00 +20°C° 0 mm 2 mps 752 mmHg 49%
    11:00 +21°C° 0 mm 2 mps 752 mmHg 44%
    12:00 +23°C° 0 mm 2 mps 752 mmHg 39%
    13:00 +22°C° 0 mm 3 mps 751 mmHg 39%
    14:00 +24°C° 0 mm 3 mps 751 mmHg 39%
    15:00 +23°C° 0 mm 4 mps 750 mmHg 39%
    16:00 +22°C° 0 mm 4 mps 750 mmHg 44%
    17:00 +20°C° 0 mm 4 mps 750 mmHg 50%
    18:00 +19°C° 0 mm 4 mps 750 mmHg 55%
    19:00 +19°C° 0 mm 4 mps 750 mmHg 52%
    20:00 +19°C° 0 mm 4 mps 751 mmHg 49%
    21:00 +19°C° 0 mm 3 mps 751 mmHg 46%
    22:00 +19°C° 0 mm 3 mps 751 mmHg 46%
    23:00 +18°C° 0 mm 3 mps 751 mmHg 46%

    Day after tomorrow, 23 November, Friday

    Time Temperature Precipitation Wind Pressure Humidity
    00:00 +18°C° 0 mm 3 mps 751 mmHg 46%
    01:00 +18°C° 0 mm 3 mps 750 mmHg 50%
    02:00 +17°C° 0 mm 3 mps 750 mmHg 55%
    03:00 +17°C° 0 mm 3 mps 750 mmHg 60%
    04:00 +17°C° 0 mm 3 mps 750 mmHg 63%
    05:00 +16°C° 0 mm 3 mps 750 mmHg 67%
    06:00 +16°C° 0 mm 3 mps 750 mmHg 70%
    07:00 +17°C° 0 mm 3 mps 751 mmHg 68%
    08:00 +17°C° 0 mm 2 mps 752 mmHg 65%
    09:00 +18°C° 0 mm 2 mps 752 mmHg 62%
    10:00 +19°C° 0 mm 3 mps 752 mmHg 58%
    11:00 +20°C° 0 mm 3 mps 752 mmHg 54%
    12:00 +21°C° 0 mm 3 mps 752 mmHg 50%
    13:00 +21°C° 0 mm 3 mps 752 mmHg 53%
    14:00 +20°C° 0 mm 4 mps 752 mmHg 55%
    15:00 +20°C° 0 mm 4 mps 751 mmHg 58%
    16:00 +20°C° 0 mm 3 mps 752 mmHg 63%
    17:00 +19°C° 0 mm 3 mps 752 mmHg 67%
    18:00 +18°C° 0 mm 3 mps 753 mmHg 72%
    19:00 +18°C° 0 mm 3 mps 753 mmHg 74%
    20:00 +18°C° 0 mm 2 mps 753 mmHg 76%
    21:00 +17°C° 0 mm 2 mps 754 mmHg 78%
    22:00 +17°C° 0.1 mm 2 mps 754 mmHg 79%
    23:00 +17°C° 0.1 mm 2 mps 754 mmHg 80%

    24 November, Saturday

    Time Temperature Precipitation Wind Pressure Humidity
    00:00 +17°C° 0.1 mm 2 mps 753 mmHg 81%
    01:00 +17°C° 0.2 mm 2 mps 753 mmHg 82%
    02:00 +17°C° 0.2 mm 2 mps 753 mmHg 84%
    03:00 +16°C° 0.2 mm 2 mps 753 mmHg 85%
    04:00 +16°C° 0.1 mm 2 mps 752 mmHg 86%
    05:00 +16°C° 0.1 mm 2 mps 752 mmHg 87%
    06:00 +16°C° 0.1 mm 2 mps 752 mmHg 88%
    07:00 +16°C° 0.1 mm 2 mps 752 mmHg 85%
    08:00 +18°C° 0.1 mm 1 mps 753 mmHg 83%
    09:00 +18°C° 0.1 mm 1 mps 753 mmHg 80%
    10:00 +17°C° 0.1 mm 2 mps 753 mmHg 78%
    11:00 +17°C° 0.1 mm 2 mps 753 mmHg 77%
    12:00 +17°C° 0.1 mm 3 mps 752 mmHg 75%
    13:00 +18°C° 0.2 mm 3 mps 752 mmHg 74%
    14:00 +18°C° 0.2 mm 3 mps 752 mmHg 73%
    15:00 +18°C° 0.2 mm 3 mps 751 mmHg 71%
    16:00 +17°C° 0 mm 3 mps 752 mmHg 74%
    17:00 +17°C° 0 mm 3 mps 752 mmHg 77%
    18:00 +16°C° 0 mm 2 mps 752 mmHg 80%
    19:00 +16°C° 0 mm 3 mps 752 mmHg 80%
    20:00 +16°C° 0 mm 3 mps 753 mmHg 81%
    21:00 +16°C° 0 mm 3 mps 753 mmHg 81%
    22:00 +14°C° 0 mm 3 mps 753 mmHg 82%
    23:00 +14°C° 0 mm 3 mps 753 mmHg 83%

    25 November, Sunday

    Time Temperature Precipitation Wind Pressure Humidity
    00:00 +14°C° 0 mm 4 mps 752 mmHg 84%
    01:00 +14°C° 0 mm 4 mps 752 mmHg 84%
    02:00 +13°C° 0 mm 4 mps 752 mmHg 83%
    03:00 +13°C° 0 mm 4 mps 751 mmHg 83%
    04:00 +13°C° 0.2 mm 3 mps 751 mmHg 81%
    05:00 +13°C° 0.2 mm 3 mps 752 mmHg 79%
    06:00 +13°C° 0.2 mm 3 mps 752 mmHg 76%
    07:00 +14°C° 0.2 mm 3 mps 752 mmHg 73%
    08:00 +14°C° 0.2 mm 4 mps 752 mmHg 69%
    09:00 +15°C° 0.2 mm 4 mps 753 mmHg 66%
    10:00 +15°C° 0 mm 5 mps 753 mmHg 63%
    11:00 +16°C° 0 mm 5 mps 753 mmHg 60%
    12:00 +17°C° 0 mm 6 mps 753 mmHg 58%
    13:00 +17°C° 0 mm 6 mps 752 mmHg 56%
    14:00 +19°C° 0 mm 6 mps 752 mmHg 55%
    15:00 +20°C° 0 mm 7 mps 752 mmHg 54%
    16:00 +17°C° 0 mm 6 mps 752 mmHg 60%
    17:00 +16°C° 0 mm 6 mps 752 mmHg 66%
    18:00 +15°C° 0 mm 6 mps 753 mmHg 72%
    19:00 +15°C° 0 mm 6 mps 753 mmHg 74%
    20:00 +15°C° 0 mm 6 mps 753 mmHg 76%
    21:00 +15°C° 0 mm 7 mps 753 mmHg 78%
    22:00 +15°C° 0 mm 7 mps 753 mmHg 78%
    23:00 +15°C° 0 mm 7 mps 753 mmHg 78%

    26 November, Monday

    Time Temperature Precipitation Wind Pressure Humidity
    00:00 +15°C° 0 mm 7 mps 753 mmHg 78%
    01:00 +15°C° 0 mm 7 mps 752 mmHg 78%
    02:00 +15°C° 0 mm 7 mps 752 mmHg 78%
    03:00 +15°C° 0 mm 7 mps 752 mmHg 78%
    04:00 +15°C° 0 mm 7 mps 752 mmHg 79%
    05:00 +14°C° 0 mm 6 mps 753 mmHg 79%
    06:00 +14°C° 0 mm 6 mps 753 mmHg 80%
    07:00 +15°C° 0 mm 6 mps 753 mmHg 75%
    08:00 +16°C° 0 mm 6 mps 754 mmHg 70%
    09:00 +17°C° 0 mm 6 mps 754 mmHg 65%
    10:00 +19°C° 0 mm 6 mps 754 mmHg 61%
    11:00 +20°C° 0 mm 6 mps 754 mmHg 57%
    12:00 +21°C° 0 mm 6 mps 753 mmHg 53%
    13:00 +21°C° 0 mm 6 mps 753 mmHg 54%
    14:00 +21°C° 0 mm 5 mps 753 mmHg 55%
    15:00 +21°C° 0 mm 5 mps 752 mmHg 55%
    16:00 +20°C° 0 mm 4 mps 753 mmHg 60%
    17:00 +19°C° 0 mm 4 mps 753 mmHg 64%
    18:00 +19°C° 0 mm 3 mps 753 mmHg 68%
    19:00 +19°C° 0 mm 4 mps 753 mmHg 69%
    20:00 +18°C° 0 mm 4 mps 753 mmHg 71%
    21:00 +18°C° 0 mm 4 mps 753 mmHg 72%
    22:00 +17°C° 0.1 mm 5 mps 753 mmHg 76%
    23:00 +17°C° 0.1 mm 5 mps 753 mmHg 79%
    Show more